Weather History for KPOF - June, 2013

Change the Weather History Date:

Saturday, June 1, 2013

  Actual Average Record
Temperature  
Mean Temperature 72 °F -  
Max Temperature 79 °F 80 °F 100 °F (1934)
Min Temperature 66 °F 59 °F 42 °F (1930)
Cooling Degree Days 7    
Growing Degree Days 22 (Base 50)    
Moisture  
Dew Point 65 °F    
Average Humidity 88    
Maximum Humidity 94    
Minimum Humidity 76    
Precipitation  
Precipitation 3.11 in - - ()
Sea Level Pressure  
Sea Level Pressure 29.88 in    
Wind  
Wind Speed 9 mph (SSE)    
Max Wind Speed 22 mph    
Max Gust Speed 33 mph    
Visibility 7 miles    
Events Rain , Thunderstorm    
Averages and records for this station are not official NWS values.
T = Trace of Precipitation, MM = Missing Value Source: NWS Daily Summary

Daily Weather History Graph

Daily Weather History Graph

Search for Another Location

Airport or City:

Trip Planner

Search our weather history database for the weather conditions in past years. The results will help you decide how hot, cold, wet, or windy it might be!

Date:

Astronomy

Jun. 01, 2013 Rise Set
Actual Time 5:43 AM CDT 8:14 PM CDT
Civil Twilight 5:13 AM CDT 8:45 PM CDT
Nautical Twilight 4:36 AM CDT 9:22 PM CDT
Astronomical Twilight 3:55 AM CDT 10:04 PM CDT
Moon 1:29 AM CDT (6/1) 1:53 PM CDT (6/1)
Length of Visible Light 15h 31m
Length of Day
14h 31m
Last Quarter, 40% of the Moon is Illuminated
Jun 1
Last Quarter
Jun 8
New
Jun 16
First Quarter
Jun 23
Full
Jun 29
Last Quarter

Hourly Weather History & Observations

Time (CDT) Temp. Dew Point Humidity Pressure Visibility Wind Dir Wind Speed Gust Speed Precip Events Conditions
12:05 AM 78.8 °F 71.6 °F 78% 29.86 in 10.0 mi South 13.8 mph - N/A   Mostly Cloudy
12:28 AM 78.8 °F 71.6 °F 78% 29.85 in 10.0 mi South 9.2 mph - 0.00 in Thunderstorm Overcast
12:43 AM 78.8 °F 71.6 °F 78% 29.85 in 10.0 mi South 9.2 mph - 0.00 in Rain Light Rain
12:53 AM 78.1 °F 72.0 °F 81% 29.82 in 10.0 mi South 9.2 mph - 0.00 in   Mostly Cloudy
1:53 AM 78.1 °F 72.0 °F 81% 29.81 in 10.0 mi South 5.8 mph - N/A   Overcast
2:16 AM 78.8 °F 71.6 °F 78% 29.82 in 10.0 mi South 9.2 mph - N/A Thunderstorm Thunderstorm
2:41 AM 69.8 °F 64.4 °F 83% 29.83 in 8.0 mi NNE 4.6 mph - 0.00 in Rain , Thunderstorm Light Rain
2:50 AM 69.8 °F 64.4 °F 83% 29.83 in 9.0 mi Variable 4.6 mph - 0.02 in Rain Light Rain
2:53 AM 69.1 °F 64.9 °F 87% 29.81 in 8.0 mi NNE 10.4 mph - 0.02 in Rain Light Rain
3:23 AM 69.8 °F 64.4 °F 83% 29.83 in 10.0 mi NE 15.0 mph 18.4 mph 0.01 in   Overcast
3:45 AM 68.0 °F 64.4 °F 88% 29.86 in 10.0 mi NNW 13.8 mph - 0.01 in Thunderstorm Overcast
3:50 AM 68.0 °F 64.4 °F 88% 29.87 in 10.0 mi NNW 13.8 mph 20.7 mph 0.01 in Thunderstorm Thunderstorm
3:53 AM 68.0 °F 64.0 °F 87% 29.83 in 10.0 mi NNW 16.1 mph 23.0 mph 0.01 in Thunderstorm Thunderstorm
4:10 AM 66.2 °F 64.4 °F 94% 29.88 in 2.5 mi NNW 11.5 mph 20.7 mph 0.05 in Rain , Thunderstorm Heavy Thunderstorms and Rain
4:17 AM 66.2 °F 64.4 °F 94% 29.88 in 1.0 mi Variable 3.5 mph - 0.26 in Rain , Thunderstorm Heavy Thunderstorms and Rain
4:32 AM 66.2 °F 64.4 °F 94% 29.87 in 1.5 mi NNE 5.8 mph - 0.59 in Rain , Thunderstorm Heavy Thunderstorms and Rain
4:53 AM 66.9 °F 64.0 °F 90% 29.87 in 1.8 mi SSE 8.1 mph - 0.95 in Rain , Thunderstorm Heavy Thunderstorms and Rain
5:00 AM 66.2 °F 64.4 °F 94% 29.87 in 2.5 mi SE 4.6 mph - 0.05 in Rain , Thunderstorm Heavy Thunderstorms and Rain
5:11 AM 66.2 °F 64.4 °F 94% 29.86 in 1.8 mi SE 8.1 mph - 0.25 in Rain , Thunderstorm Heavy Rain
5:15 AM 66.2 °F 64.4 °F 94% 29.86 in 2.0 mi SSE 8.1 mph - 0.29 in Rain Heavy Rain
5:25 AM 66.2 °F 64.4 °F 94% 29.87 in 5.0 mi SSE 6.9 mph - 0.33 in Rain , Thunderstorm Light Rain
5:46 AM 66.2 °F 64.4 °F 94% 29.86 in 5.0 mi SE 6.9 mph - 0.38 in Rain Rain
5:53 AM 66.0 °F 64.0 °F 93% 29.86 in 6.0 mi SSE 8.1 mph - 0.39 in Rain , Thunderstorm Rain
6:01 AM 66.2 °F 64.4 °F 94% 29.87 in 5.0 mi SSE 6.9 mph - 0.02 in Rain , Thunderstorm Rain
6:09 AM 66.2 °F 64.4 °F 94% 29.88 in 6.0 mi SSE 3.5 mph - 0.03 in Rain Rain
6:18 AM 66.2 °F 64.4 °F 94% 29.89 in 4.0 mi SSE 4.6 mph - 0.08 in Rain Rain
6:30 AM 66.2 °F 64.4 °F 94% 29.92 in 2.5 mi SSW 8.1 mph - 0.17 in Rain Rain
6:37 AM 66.2 °F 64.4 °F 94% 29.91 in 1.8 mi Calm Calm - 0.22 in Rain , Thunderstorm Heavy Thunderstorms and Rain
6:44 AM 66.2 °F 64.4 °F 94% 29.92 in 1.2 mi East 3.5 mph - 0.34 in Rain , Thunderstorm Heavy Thunderstorms and Rain
6:53 AM 66.0 °F 64.0 °F 93% 29.90 in 1.5 mi Calm Calm - 0.45 in Rain , Thunderstorm Heavy Rain
7:14 AM 66.2 °F 64.4 °F 94% 29.94 in 2.5 mi SSW 6.9 mph - 0.40 in Rain Rain
7:21 AM 66.2 °F 64.4 °F 94% 29.91 in 4.0 mi ENE 10.4 mph - 0.43 in Rain Rain
7:28 AM 66.2 °F 64.4 °F 94% 29.92 in 2.5 mi WSW 4.6 mph - 0.47 in Rain Heavy Rain
7:36 AM 66.2 °F 64.4 °F 94% 29.92 in 5.0 mi East 8.1 mph - 0.50 in Rain Light Rain
7:53 AM 66.0 °F 64.0 °F 93% 29.90 in 5.0 mi East 4.6 mph - 0.52 in Rain Rain
8:31 AM 66.2 °F 64.4 °F 94% 29.91 in 3.0 mi East 5.8 mph - 0.09 in Rain Rain
8:53 AM 66.9 °F 64.0 °F 90% 29.91 in 5.0 mi ESE 5.8 mph - 0.12 in Rain Rain
9:25 AM 66.2 °F 64.4 °F 94% 29.93 in 1.8 mi ESE 6.9 mph - 0.14 in Rain Heavy Rain
9:34 AM 66.2 °F 64.4 °F 94% 29.94 in 2.0 mi SE 9.2 mph - 0.22 in Rain Light Rain
9:39 AM 66.2 °F 64.4 °F 94% 29.94 in 4.0 mi SE 6.9 mph - 0.22 in Rain Light Rain
9:53 AM 66.9 °F 64.0 °F 90% 29.94 in 4.0 mi SSE 9.2 mph - 0.26 in Rain Rain
10:16 AM 66.2 °F 64.4 °F 94% 29.95 in 2.5 mi SSE 9.2 mph - 0.10 in Rain Rain
10:23 AM 66.2 °F 64.4 °F 94% 29.94 in 3.0 mi SSE 6.9 mph - 0.12 in Rain Rain
10:33 AM 66.2 °F 64.4 °F 94% 29.91 in 2.5 mi SE 5.8 mph - 0.17 in Rain Rain
10:48 AM 66.2 °F 64.4 °F 94% 29.92 in 3.0 mi SE 11.5 mph - 0.24 in Rain Rain
10:53 AM 66.0 °F 64.0 °F 93% 29.90 in 4.0 mi SE 12.7 mph 19.6 mph 0.26 in Rain Rain
11:04 AM 66.2 °F 62.6 °F 88% 29.89 in 4.0 mi ESE 15.0 mph 24.2 mph 0.04 in Rain Rain
11:30 AM 66.2 °F 64.4 °F 94% 29.86 in 6.0 mi SE 17.3 mph - 0.09 in Rain Rain
11:53 AM 66.9 °F 64.0 °F 90% 29.85 in 10.0 mi SE 17.3 mph 26.5 mph 0.10 in Rain Light Rain
12:20 PM 66.2 °F 64.4 °F 94% 29.84 in 10.0 mi SE 17.3 mph 26.5 mph 0.01 in Rain Light Rain
12:53 PM 66.9 °F 64.0 °F 90% 29.79 in 10.0 mi SE 21.9 mph 31.1 mph 0.02 in Rain Light Rain
1:14 PM 66.2 °F 64.4 °F 94% 29.82 in 10.0 mi SSE 19.6 mph 33.4 mph 0.01 in Rain Light Rain
1:53 PM 68.0 °F 64.9 °F 90% 29.88 in 10.0 mi West 8.1 mph - 0.01 in   Overcast
2:53 PM 69.1 °F 64.9 °F 87% 29.89 in 10.0 mi SW 5.8 mph - N/A   Overcast
3:06 PM 69.8 °F 64.4 °F 83% 29.90 in 10.0 mi SSW 9.2 mph - N/A   Overcast
3:14 PM 69.8 °F 64.4 °F 83% 29.89 in 10.0 mi SSW 5.8 mph - N/A   Overcast
3:53 PM 71.1 °F 66.0 °F 84% 29.86 in 10.0 mi SW 10.4 mph - N/A   Overcast
4:11 PM 71.6 °F 64.4 °F 78% 29.86 in 10.0 mi SW 11.5 mph - N/A   Mostly Cloudy
4:23 PM 71.6 °F 64.4 °F 78% 29.86 in 10.0 mi SW 9.2 mph 18.4 mph N/A   Mostly Cloudy
4:53 PM 72.0 °F 64.9 °F 78% 29.84 in 10.0 mi SW 10.4 mph - N/A   Overcast
5:53 PM 73.0 °F 66.0 °F 79% 29.83 in 10.0 mi SW 10.4 mph - N/A   Overcast
6:53 PM 73.9 °F 66.0 °F 76% 29.83 in 10.0 mi SW 8.1 mph - N/A   Mostly Cloudy
7:07 PM 73.4 °F 66.2 °F 78% 29.84 in 10.0 mi SW 6.9 mph - N/A   Scattered Clouds
7:53 PM 72.0 °F 66.0 °F 81% 29.84 in 10.0 mi SSW 8.1 mph - N/A   Clear
8:53 PM 71.1 °F 66.0 °F 84% 29.86 in 10.0 mi SW 8.1 mph - N/A   Clear
9:53 PM 71.1 °F 64.9 °F 81% 29.88 in 10.0 mi SSW 6.9 mph - N/A   Clear
10:53 PM 70.0 °F 64.9 °F 84% 29.91 in 10.0 mi SSW 8.1 mph - N/A   Overcast
11:06 PM 69.8 °F 64.4 °F 83% 29.92 in 10.0 mi WNW 6.9 mph - N/A   Overcast
11:41 PM 69.8 °F 64.4 °F 83% 29.92 in 10.0 mi SSW 5.8 mph - N/A   Scattered Clouds
11:53 PM 69.1 °F 64.9 °F 87% 29.91 in 10.0 mi SSW 5.8 mph - N/A   Clear